Change the Weather History Date:

Monday, March 10, 2014

  Actual Average Record
Temperature  
Mean Temperature 59 °F -  
Max Temperature 74 °F 67 °F 83 °F (2015)
Min Temperature 44 °F 44 °F 32 °F (1998)
Degree Days  
Heating Degree Days 6    
Growing Degree Days 9 (Base 50)    
Moisture  
Dew Point 48 °F    
Average Humidity 86    
Maximum Humidity 100    
Minimum Humidity 46    
Precipitation  
Precipitation 0.00 in - - ()
Sea Level Pressure  
Sea Level Pressure 30.08 in    
Wind  
Wind Speed 1 mph (WSW)    
Max Wind Speed 9 mph    
Max Gust Speed -    
Visibility 5 miles    
Events Fog    
Averages and records for this station are not official NWS values.
T = Trace of Precipitation, MM = Missing Value Source: NWS Daily Summary

Daily Weather History Graph

Daily Weather History Graph

Search for Another Location

Airport or City:

Trip Planner

Search our weather history database for the weather conditions in past years. The results will help you decide how hot, cold, wet, or windy it might be!

Date:

Astronomy

Mar. 10, 2014 Rise Set
Actual Time 7:02 AM CDT 6:49 PM CDT
Civil Twilight 6:37 AM CDT 7:14 PM CDT
Nautical Twilight 6:09 AM CDT 7:42 PM CDT
Astronomical Twilight 5:40 AM CDT 8:11 PM CDT
Moon 1:46 PM CDT (3/10) 2:59 AM CDT (3/10)
Length of Visible Light 12h 36m
Length of Day
11h 47m
Waxing Gibbous, 70% of the Moon is Illuminated
Mar 10
Waxing Gibbous
Mar 16
Full
Mar 23
Last Quarter
Mar 30
New
Apr 7
First Quarter

Hourly Weather History & Observations

Time (CDT) Temp. Dew Point Humidity Pressure Visibility Wind Dir Wind Speed Gust Speed Precip Events Conditions
12:58 AM 51.6 °F 47.8 °F 87% 30.14 in 10.0 mi Calm Calm - N/A   Clear
1:58 AM 49.5 °F 48.4 °F 96% 30.13 in 10.0 mi WSW 1.2 mph - N/A   Clear
2:58 AM 49.1 °F 48.7 °F 99% 30.12 in 9.0 mi Calm Calm - N/A   Clear
3:58 AM 48.2 °F 48.0 °F 99% 30.09 in 5.0 mi Calm Calm - N/A   Clear
4:03 AM 51.8 °F 51.8 °F 100% 30.08 in 2.0 mi Calm Calm - N/A   Clear
4:08 AM 51.8 °F 50.0 °F 94% 30.08 in 1.5 mi Calm Calm - N/A   Clear
4:13 AM 50.0 °F 48.2 °F 94% 30.08 in 2.0 mi SW 2.3 mph - N/A   Clear
4:18 AM 48.2 °F 48.2 °F 100% 30.08 in 3.0 mi SW 2.3 mph - N/A   Clear
4:58 AM 46.0 °F 45.7 °F 99% 30.10 in 10.0 mi South 2.3 mph - N/A   Clear
5:23 AM 48.2 °F 48.2 °F 100% 30.09 in 1.8 mi Calm Calm - N/A   Clear
5:28 AM 48.2 °F 48.2 °F 100% 30.09 in 1.0 mi Calm Calm - N/A   Clear
5:33 AM 48.2 °F 48.2 °F 100% 30.09 in 1.2 mi Calm Calm - N/A   Clear
5:38 AM 46.4 °F 46.4 °F 100% 30.09 in 0.8 mi Calm Calm - N/A   Clear
5:43 AM 46.4 °F 46.4 °F 100% 30.09 in 0.5 mi Variable 1.2 mph - N/A Fog Fog
5:48 AM 46.4 °F 46.4 °F 100% 30.09 in 1.0 mi Calm Calm - N/A   Clear
5:53 AM 46.4 °F 44.6 °F 93% 30.09 in 1.2 mi WSW 1.2 mph - N/A   Clear
5:58 AM 46.4 °F 44.6 °F 93% 30.10 in 1.5 mi Calm Calm - N/A   Clear
6:03 AM 46.4 °F 46.4 °F 100% 30.09 in 3.0 mi Calm Calm - N/A   Clear
6:23 AM 44.6 °F 44.6 °F 100% 30.10 in 3.0 mi SSW 2.3 mph - N/A   Clear
6:28 AM 44.6 °F 44.6 °F 100% 30.10 in 3.0 mi Calm Calm - N/A   Clear
6:53 AM 46.4 °F 44.6 °F 93% 30.11 in 2.5 mi Calm Calm - N/A   Clear
6:58 AM 45.5 °F 45.3 °F 99% 30.12 in 1.2 mi SSW 2.3 mph - N/A   Clear
7:03 AM 46.4 °F 44.6 °F 93% 30.11 in 1.0 mi Calm Calm - N/A   Clear
7:08 AM 44.6 °F 44.6 °F 100% 30.11 in 1.2 mi Calm Calm - N/A   Clear
7:13 AM 44.6 °F 44.6 °F 100% 30.12 in 1.0 mi Calm Calm - N/A   Clear
7:23 AM 46.4 °F 46.4 °F 100% 30.12 in 1.8 mi Calm Calm - N/A   Clear
7:28 AM 44.6 °F 44.6 °F 100% 30.12 in 1.0 mi Calm Calm - N/A   Clear
7:33 AM 44.6 °F 44.6 °F 100% 30.12 in 1.0 mi Calm Calm - N/A   Clear
7:38 AM 46.4 °F 44.6 °F 93% 30.12 in 2.0 mi Calm Calm - N/A   Clear
7:43 AM 46.4 °F 46.4 °F 100% 30.13 in 5.0 mi Calm Calm - N/A   Clear
7:58 AM 47.8 °F 47.5 °F 99% 30.14 in 5.0 mi Calm Calm - N/A   Clear
8:58 AM 55.8 °F 50.0 °F 81% 30.15 in 10.0 mi WSW 2.3 mph - N/A   Clear
9:58 AM 62.1 °F 51.3 °F 68% 30.15 in 10.0 mi Calm Calm - N/A   Clear
10:58 AM 66.0 °F 50.5 °F 57% 30.14 in 10.0 mi ESE 5.8 mph - N/A   Clear
11:58 AM 68.7 °F 50.2 °F 52% 30.12 in 10.0 mi Variable 5.8 mph - N/A   Clear
12:58 PM 71.1 °F 51.6 °F 50% 30.09 in 10.0 mi West 6.9 mph - N/A   Clear
1:58 PM 72.3 °F 51.8 °F 48% 30.05 in 7.0 mi West 9.2 mph - N/A   Clear
2:58 PM 72.5 °F 52.0 °F 48% 30.02 in 10.0 mi SW 9.2 mph - N/A   Clear
3:58 PM 73.9 °F 52.0 °F 46% 30.00 in 10.0 mi Variable 5.8 mph - N/A   Clear
4:58 PM 74.1 °F 52.0 °F 46% 29.98 in 10.0 mi Variable 3.5 mph - N/A   Clear
5:58 PM 73.0 °F 52.5 °F 48% 29.97 in 10.0 mi WNW 6.9 mph - N/A   Clear
6:58 PM 70.0 °F 52.3 °F 53% 29.96 in 10.0 mi West 1.2 mph - N/A   Clear
7:58 PM 60.8 °F 53.2 °F 76% 29.97 in 10.0 mi Calm Calm - N/A   Clear
8:58 PM 57.7 °F 52.7 °F 83% 29.98 in 10.0 mi Calm Calm - N/A   Clear
9:58 PM 57.0 °F 53.1 °F 87% 29.97 in 10.0 mi Calm Calm - N/A   Clear
10:58 PM 54.7 °F 52.9 °F 94% 29.97 in 10.0 mi Calm Calm - N/A   Clear
11:58 PM 53.8 °F 52.9 °F 97% 29.95 in 10.0 mi NW 1.2 mph - N/A   Clear